Vorticity
nan nan nan nan nan nan nan nan nan nan nan nan nan nan nan nan nan nan nan nan nan nan nan nan nan nan nan nan nan nan nan nan nan
nan 4 7 5 5 7 5 4 3 2 5 6 3 3 2 5 7 6 7 13 5 4 4 5 5 7 7 7 6 8 7 5 nan
nan 4 7 7 5 6 5 4 3 4 6 2 3 5 6 6 4 6 7 8 4 5 5 5 6 7 6 6 7 3 6 10 nan
nan 3 6 8 7 5 3 5 5 6 4 2 6 12 9 3 5 6 7 5 2 6 7 7 6 7 6 6 6 1 4 9 nan
nan 3 5 8 8 7 9 6 5 6 4 2 7 7 5 6 5 6 11 5 5 5 7 8 5 6 7 6 5 5 4 3 nan
nan 6 6 6 7 7 11 6 4 4 3 3 7 5 2 5 6 7 10 7 7 6 6 5 6 4 5 7 6 6 4 3 nan
nan 7 6 5 4 5 6 4 1 2 4 6 6 7 8 5 6 8 8 8 7 6 6 6 6 5 4 7 7 6 6 2 nan
nan 5 6 7 4 5 6 2 4 5 5 5 9 9 7 6 6 8 9 8 7 6 6 5 6 6 6 7 5 7 7 4 nan
nan 7 7 6 6 7 5 6 6 7 7 5 8 9 7 7 8 8 7 6 5 6 5 6 6 5 5 5 7 6 7 6 nan
nan 7 7 7 7 7 7 7 6 7 8 7 8 11 7 6 8 8 6 7 6 5 5 6 5 6 5 4 6 6 6 5 nan
nan 8 7 7 7 7 7 6 9 9 8 8 10 9 5 6 8 7 7 8 5 7 7 5 7 6 5 5 6 5 7 7 nan
nan 7 7 8 9 8 6 7 9 11 8 6 8 9 6 7 7 7 7 7 8 8 6 7 7 5 6 6 5 5 5 8 nan
nan 7 8 8 9 8 7 8 8 8 8 7 7 9 7 8 6 6 8 7 8 9 9 7 5 6 7 7 6 6 5 6 nan
nan 8 9 8 7 8 7 8 9 7 8 8 7 9 10 7 7 7 7 7 7 7 7 6 7 8 6 6 6 5 6 5 nan
nan 8 9 8 8 7 6 7 9 9 8 6 6 8 10 9 9 8 7 7 7 7 5 5 8 7 8 8 6 6 8 5 nan
nan 7 8 8 10 10 6 7 8 7 8 5 6 8 8 9 9 8 8 9 8 7 5 6 7 9 9 6 6 7 6 5 nan
nan 7 6 7 8 10 7 5 6 10 7 6 7 5 5 11 9 8 9 7 8 9 8 8 7 7 6 8 8 7 6 7 nan
nan 7 7 7 7 8 8 8 6 5 10 8 4 8 10 6 9 10 8 7 7 9 9 8 8 7 7 8 7 6 7 8 nan
nan 8 8 6 6 8 8 8 7 8 9 4 7 9 11 6 8 9 10 11 7 7 7 9 9 8 9 10 8 6 5 7 nan
nan nan nan nan nan nan nan nan nan nan nan nan nan nan nan nan nan nan nan nan nan nan nan nan nan nan nan nan nan nan nan nan nan
CAPE
2 17 42 183 77 85 96 45 19 10 24 47 162 50 46 13 12 11 30 33 160 93 50 35 21 12 14 19 17 17 13 19 17
0 11 40 47 59 22 57 49 20 8 24 49 54 45 25 5 1 6 7 47 63 47 52 33 16 11 21 21 16 18 19 18 21
0 8 31 25 51 53 38 59 28 10 11 41 67 49 21 0 5 0 21 73 55 35 30 37 23 9 21 23 23 30 49 63 48
0 17 33 37 12 46 12 91 21 3 22 53 51 37 20 0 0 0 15 84 41 18 11 11 13 11 13 23 20 25 59 70 79
0 7 27 26 41 19 67 77 24 35 41 40 30 17 9 0 0 0 38 41 15 19 21 21 12 16 18 12 31 34 49 43 61
0 0 6 17 21 49 64 73 42 26 13 19 15 5 0 0 0 18 39 27 22 10 17 23 11 13 22 14 24 28 31 36 35
0 0 1 10 16 30 60 53 39 3 0 0 2 3 0 0 13 21 47 34 17 14 16 23 17 13 23 15 15 17 7 22 27
0 0 0 0 0 6 12 7 0 0 0 0 0 2 0 0 0 39 53 41 29 14 15 15 19 8 21 16 16 15 11 15 25
0 0 0 0 0 0 0 0 0 1 0 0 0 1 0 0 0 31 48 58 31 18 23 11 10 13 13 17 17 7 8 13 9
0 0 0 0 0 0 0 0 0 0 2 0 0 0 1 0 0 9 24 60 43 21 12 23 10 22 13 13 22 19 9 13 16
0 0 0 0 0 0 0 0 1 0 1 1 0 1 1 0 0 0 21 49 50 36 26 10 10 19 9 11 20 11 16 8 10
0 0 0 0 0 0 0 0 0 0 1 0 0 0 2 0 0 0 17 33 26 53 38 21 28 14 10 11 12 10 9 16 7
0 0 0 0 0 0 0 0 0 0 1 0 0 0 3 0 1 4 10 14 25 44 44 36 23 22 12 13 8 10 5 11 8
0 0 0 0 0 0 0 0 0 0 0 0 0 0 0 5 6 3 4 3 1 2 19 21 25 30 18 13 12 10 5 8 2
0 0 0 0 0 0 0 0 0 0 0 0 0 0 0 0 0 0 9 0 0 0 0 0 1 15 17 16 4 5 8 7 3
0 0 0 0 0 0 0 0 0 0 0 0 0 0 0 0 0 0 0 0 0 0 0 0 0 0 22 9 0 3 8 3 5
0 0 0 0 0 0 0 0 0 0 0 0 0 0 0 0 0 0 0 0 0 0 0 0 0 0 0 0 4 0 1 1 10
0 0 0 0 0 0 0 0 0 0 0 0 0 0 0 0 0 1 1 0 0 0 0 0 0 0 0 0 0 0 0 5 14
0 0 0 0 0 0 0 0 0 0 0 0 0 0 0 0 0 0 0 0 0 0 0 0 0 0 0 0 0 0 0 0 8
0 0 0 0 0 0 0 0 0 0 0 0 0 0 0 0 0 0 0 0 0 0 0 0 0 0 0 0 0 0 0 0 6